Boneville, GA

3:24 PM EDT on August 27, 2016 (GMT -0400)
Thomson-McDuffie County

Weather History for KHQU - August, 2013

Change the Weather History Date:

Wednesday, August 21, 2013

  Actual Average (KDBN) Record (KDBN)
Temperature  
Mean Temperature 78 °F -  
Max Temperature 86 °F 92 °F 104 °F (1983)
Min Temperature 69 °F 67 °F 56 °F (1943)
Cooling Degree Days 12    
Growing Degree Days 28 (Base 50)    
Moisture  
Dew Point 73 °F    
Average Humidity 93    
Maximum Humidity 100    
Minimum Humidity 66    
Precipitation  
Precipitation 0.00 in - - ()
Sea Level Pressure  
Sea Level Pressure 30.22 in    
Wind  
Wind Speed 1 mph (NE)    
Max Wind Speed 9 mph    
Max Gust Speed -    
Visibility 6 miles    
Events      
Averages and records for this station are not official NWS values.
T = Trace of Precipitation, MM = Missing Value Source: NWS Daily Summary

Daily Weather History Graph

Daily Weather History Graph

Search for Another Location

Airport or City:

Trip Planner

Search our weather history database for the weather conditions in past years. The results will help you decide how hot, cold, wet, or windy it might be!

Date:

Astronomy

Aug. 21, 2013 Rise Set
Actual Time 6:56 AM EDT 8:08 PM EDT
Civil Twilight 6:30 AM EDT 8:34 PM EDT
Nautical Twilight 5:59 AM EDT 9:05 PM EDT
Astronomical Twilight 5:27 AM EDT 9:37 PM EDT
Moon 8:23 PM EDT (8/21) 7:30 AM EDT (8/21)
Length of Visible Light 14h 04m
Length of Day
13h 12m
Full, 100% of the Moon is Illuminated
Aug 21
Full
Aug 28
Last Quarter
Sep 5
New
Sep 12
First Quarter
Sep 19
Full

Hourly Weather History & Observations

Time (EDT) Temp. Heat Index Dew Point Humidity Pressure Visibility Wind Dir Wind Speed Gust Speed Precip Events Conditions
12:15 AM 72.0 °F - 72.0 °F 100% 30.23 in 10.0 mi Calm Calm - N/A   Clear
12:35 AM 71.6 °F - 71.6 °F 100% 30.23 in 10.0 mi Calm Calm - N/A   Clear
12:55 AM 71.2 °F - 71.2 °F 100% 30.23 in 5.0 mi Calm Calm - N/A   Clear
1:15 AM 70.9 °F - 70.9 °F 100% 30.23 in 7.0 mi Calm Calm - N/A   Scattered Clouds
1:35 AM 70.9 °F - 70.9 °F 100% 30.23 in 5.0 mi Calm Calm - N/A   Mostly Cloudy
1:55 AM 71.1 °F - 71.1 °F 100% 30.22 in 5.0 mi Calm Calm - N/A   Overcast
2:15 AM 71.2 °F - 71.2 °F 100% 30.21 in 7.0 mi Calm Calm - N/A   Mostly Cloudy
2:35 AM 70.9 °F - 70.9 °F 100% 30.21 in 5.0 mi Calm Calm - N/A   Overcast
2:55 AM 71.1 °F - 71.1 °F 100% 30.21 in 4.0 mi Calm Calm - N/A   Overcast
3:35 AM 70.7 °F - 70.7 °F 100% 30.18 in 0.8 mi ENE 9.2 mph - N/A   Overcast
3:55 AM 70.7 °F - 70.7 °F 100% 30.17 in 10.0 mi Calm Calm - N/A   Scattered Clouds
4:15 AM 70.7 °F - 70.7 °F 100% 30.17 in 10.0 mi Calm Calm - N/A   Clear
4:35 AM 70.2 °F - 70.2 °F 100% 30.18 in 10.0 mi Calm Calm - N/A   Clear
4:55 AM 69.8 °F - 69.8 °F 100% 30.19 in 7.0 mi Calm Calm - N/A   Clear
5:15 AM 69.8 °F - 69.8 °F 100% 30.21 in 7.0 mi Calm Calm - N/A   Scattered Clouds
5:35 AM 70.2 °F - 70.2 °F 100% 30.22 in 7.0 mi NNW 3.5 mph - N/A   Overcast
5:55 AM 70.7 °F - 70.7 °F 100% 30.22 in 5.0 mi Calm Calm - N/A   Overcast
6:15 AM 70.7 °F - 70.7 °F 100% 30.22 in 5.0 mi Calm Calm - N/A   Overcast
6:35 AM 71.1 °F - 71.1 °F 100% 30.23 in 5.0 mi Calm Calm - N/A   Mostly Cloudy
6:55 AM 71.1 °F - 71.1 °F 100% 30.23 in 3.0 mi Calm Calm - N/A   Overcast
7:15 AM 71.2 °F - 71.2 °F 100% 30.24 in 1.2 mi Calm Calm - N/A   Overcast
7:35 AM 71.2 °F - 71.2 °F 100% 30.25 in 0.5 mi Calm Calm - N/A   Overcast
7:55 AM 71.6 °F - 71.6 °F 100% 30.25 in 0.2 mi Calm Calm - N/A   Overcast
8:15 AM 71.8 °F - 71.8 °F 100% 30.25 in 0.2 mi Calm Calm - N/A   Overcast
8:35 AM 72.5 °F - 72.5 °F 100% 30.26 in 2.0 mi Calm Calm - N/A   Overcast
8:55 AM 72.9 °F - 72.9 °F 100% 30.26 in 4.0 mi Calm Calm - N/A   Overcast
9:15 AM 73.9 °F - 73.9 °F 100% 30.27 in 5.0 mi Calm Calm - N/A   Overcast
9:35 AM 74.3 °F - 74.3 °F 100% 30.27 in 7.0 mi Calm Calm - N/A   Overcast
9:55 AM 76.6 °F - 75.6 °F 96% 30.28 in 10.0 mi Calm Calm - N/A   Overcast
10:15 AM 76.5 °F - 75.4 °F 96% 30.28 in 10.0 mi NE 3.5 mph - N/A   Mostly Cloudy
10:35 AM 76.8 °F - 75.2 °F 95% 30.28 in 5.0 mi Calm Calm - N/A   Mostly Cloudy
10:55 AM 77.4 °F - 75.0 °F 92% 30.28 in 7.0 mi Calm Calm - N/A   Mostly Cloudy
11:15 AM 78.6 °F - 75.6 °F 90% 30.27 in 7.0 mi Calm Calm - N/A   Mostly Cloudy
11:35 AM 80.2 °F 85.7 °F 75.7 °F 86% 30.28 in 10.0 mi Calm Calm - N/A   Mostly Cloudy
11:55 AM 79.7 °F - 75.4 °F 87% 30.27 in 10.0 mi SSE 5.8 mph - N/A   Mostly Cloudy
12:15 PM 80.6 °F 86.4 °F 75.6 °F 85% 30.27 in 10.0 mi Calm Calm - N/A   Overcast
12:35 PM 82.0 °F 89.4 °F 76.1 °F 82% 30.27 in 10.0 mi Calm Calm - N/A   Overcast
12:55 PM 83.3 °F 91.1 °F 75.6 °F 77% 30.26 in 10.0 mi Calm Calm - N/A   Mostly Cloudy
1:15 PM 83.5 °F 91.2 °F 75.4 °F 76% 30.26 in 3.0 mi Calm Calm - N/A   Scattered Clouds
1:35 PM 84.7 °F 92.8 °F 74.8 °F 72% 30.25 in 10.0 mi Calm Calm - N/A   Scattered Clouds
1:55 PM 84.6 °F 92.1 °F 74.3 °F 71% 30.24 in 7.0 mi Calm Calm - N/A   Clear
2:15 PM 85.3 °F 93.4 °F 74.5 °F 70% 30.23 in 7.0 mi Calm Calm - N/A   Clear
2:35 PM 86.2 °F 94.6 °F 74.7 °F 68% 30.22 in 5.0 mi WSW 3.5 mph - N/A   Scattered Clouds
2:55 PM 86.9 °F 96.4 °F 75.2 °F 68% 30.21 in 2.0 mi Calm Calm - N/A   Clear
3:15 PM 86.4 °F 95.1 °F 74.8 °F 68% 30.21 in 7.0 mi Calm Calm - N/A   Scattered Clouds
3:35 PM 86.9 °F 95.4 °F 74.5 °F 66% 30.20 in 10.0 mi Calm Calm - N/A   Scattered Clouds
3:55 PM 86.7 °F 95.0 °F 74.3 °F 66% 30.19 in 10.0 mi Calm Calm - N/A   Clear
4:15 PM 85.5 °F 95.0 °F 75.7 °F 73% 30.19 in 10.0 mi Calm Calm - N/A   Scattered Clouds
4:35 PM 86.2 °F 94.2 °F 74.1 °F 67% 30.19 in 10.0 mi Calm Calm - N/A   Clear
4:55 PM 82.9 °F 89.9 °F 74.8 °F 76% 30.19 in 10.0 mi East 5.8 mph - N/A   Mostly Cloudy
5:15 PM 78.3 °F - 73.9 °F 87% 30.19 in 10.0 mi ENE 4.6 mph - N/A   Overcast
5:35 PM 74.7 °F - 73.4 °F 96% 30.20 in 5.0 mi NE 5.8 mph - N/A   Overcast
5:55 PM 74.7 °F - 74.7 °F 100% 30.21 in 4.0 mi NNW 8.1 mph - N/A   Mostly Cloudy
6:15 PM 73.4 °F - 72.5 °F 97% 30.20 in 5.0 mi NW 6.9 mph - N/A   Mostly Cloudy
6:35 PM 72.9 °F - 72.3 °F 98% 30.21 in 5.0 mi NE 3.5 mph - N/A   Overcast
6:55 PM 72.5 °F - 72.5 °F 100% 30.19 in 1.2 mi Calm Calm - N/A   Overcast
7:15 PM 72.0 °F - 72.0 °F 100% 30.17 in 2.5 mi Calm Calm - N/A   Mostly Cloudy
7:35 PM 72.0 °F - 72.0 °F 100% 30.19 in 7.0 mi Calm Calm - N/A   Scattered Clouds
7:55 PM 71.6 °F - 71.6 °F 100% 30.19 in 7.0 mi SW 3.5 mph - N/A   Clear
8:15 PM 72.1 °F - 72.1 °F 100% 30.19 in 4.0 mi Calm Calm - N/A   Scattered Clouds
8:35 PM 72.7 °F - 72.7 °F 100% 30.19 in 1.5 mi Calm Calm - N/A   Unknown
8:55 PM 72.5 °F - 72.5 °F 100% 30.19 in 1.5 mi Calm Calm - N/A   Unknown
9:15 PM 72.1 °F - 72.1 °F 100% 30.19 in 2.5 mi East 6.9 mph - N/A   Clear
9:35 PM 72.5 °F - 72.5 °F 100% 30.20 in 2.0 mi Calm Calm - N/A   Clear
9:55 PM 71.8 °F - 71.8 °F 100% 30.22 in 1.0 mi Calm Calm - N/A   Mostly Cloudy
10:15 PM 71.2 °F - 71.2 °F 100% 30.24 in 1.8 mi Calm Calm - N/A   Mostly Cloudy
10:35 PM 71.6 °F - 71.6 °F 100% 30.23 in 1.5 mi Calm Calm - N/A   Overcast
10:55 PM 71.8 °F - 71.8 °F 100% 30.22 in 2.0 mi East 3.5 mph - N/A   Scattered Clouds
11:15 PM 71.6 °F - 71.6 °F 100% 30.22 in 1.0 mi Calm Calm - N/A   Unknown
11:35 PM 71.2 °F - 71.2 °F 100% 30.22 in 1.8 mi Calm Calm - N/A   Mostly Cloudy
11:55 PM 71.4 °F - 71.4 °F 100% 30.23 in 1.0 mi Calm Calm - N/A   Scattered Clouds